Weather History for Hoonah, AK

Change the Weather History Date:

Monday, March 17, 2014

  Actual Average Record
Temperature  
Mean Temperature 36 °F -  
Max Temperature 41 °F 36 °F 46 °F (2005)
Min Temperature 30 °F 25 °F 0 °F (2006)
Degree Days  
Heating Degree Days 30    
Moisture  
Dew Point 35 °F    
Average Humidity 99    
Maximum Humidity 100    
Minimum Humidity 87    
Precipitation  
Precipitation 0.00 in - - ()
Sea Level Pressure  
Sea Level Pressure 29.94 in    
Wind  
Wind Speed 6 mph (ENE)    
Max Wind Speed 13 mph    
Max Gust Speed 20 mph    
Visibility 8 miles    
Events Rain , Snow    
Averages and records for this station are not official NWS values.
T = Trace of Precipitation, MM = Missing Value Source: NWS Daily Summary

Daily Weather History Graph

Daily Weather History Graph

Search for Another Location

Airport:

Trip Planner

Search our weather history database for the weather conditions in past years. The results will help you decide how hot, cold, wet, or windy it might be!

Date:

Astronomy

Mar. 17, 2014 Rise Set
Actual Time 7:11 AM AKDT 7:09 PM AKDT
Civil Twilight 6:32 AM AKDT 7:49 PM AKDT
Nautical Twilight 5:45 AM AKDT 8:35 PM AKDT
Astronomical Twilight 4:56 AM AKDT 9:25 PM AKDT
Moon 8:58 PM AKDT (3/17) 7:14 AM AKDT (3/17)
Length of Visible Light 13h 16m
Length of Day
11h 58m
Full, 99% of the Moon is Illuminated
Mar 17
Full
Mar 23
Last Quarter
Mar 30
New
Apr 7
First Quarter
Apr 14
Full

Hourly Weather History & Observations

Time (AKDT) Temp. Windchill Dew Point Humidity Pressure Visibility Wind Dir Wind Speed Gust Speed Precip Events Conditions
12:56 AM 30.2 °F 25.4 °F 30.2 °F 100% 29.99 in 10.0 mi NE 4.6 mph - N/A   Overcast
1:56 AM 31.1 °F 27.7 °F 30.0 °F 96% 29.99 in 10.0 mi East 3.5 mph - N/A   Clear
2:56 AM 32.9 °F 27.5 °F 30.0 °F 89% 29.99 in 10.0 mi ENE 5.8 mph - 0.00 in   Overcast
3:56 AM 33.8 °F 28.6 °F 30.2 °F 87% 29.96 in 10.0 mi ENE 5.8 mph - N/A   Overcast
4:26 AM 33.8 °F 28.6 °F 32.0 °F 93% 29.96 in 6.0 mi ENE 5.8 mph - 0.00 in   Overcast
4:56 AM 32.9 °F 26.7 °F 32.9 °F 100% 29.96 in 5.0 mi ENE 6.9 mph - 0.00 in   Overcast
5:42 AM 33.8 °F 25.8 °F 33.8 °F 100% 29.94 in 5.0 mi East 10.4 mph - 0.00 in   Overcast
5:56 AM 32.9 °F 24.1 °F 32.9 °F 100% 29.94 in 8.0 mi East 11.5 mph - 0.00 in   Mostly Cloudy
6:33 AM 33.8 °F 24.8 °F 33.8 °F 100% 29.93 in 4.0 mi East 12.7 mph - 0.00 in Snow Light Snow
6:56 AM 33.8 °F 25.3 °F 33.8 °F 100% 29.92 in 3.0 mi ENE 11.5 mph - N/A Snow Light Snow
7:26 AM 33.8 °F 24.8 °F 33.8 °F 100% 29.91 in 2.0 mi East 12.7 mph 19.6 mph 0.00 in Snow Light Snow
7:56 AM 32.9 °F 24.1 °F 32.9 °F 100% 29.91 in 1.8 mi East 11.5 mph - 0.00 in Snow Light Snow
8:10 AM 33.8 °F 25.3 °F 33.8 °F 100% 29.90 in 2.5 mi East 11.5 mph - 0.00 in Snow Light Snow
8:33 AM 33.8 °F 25.8 °F 33.8 °F 100% 29.89 in 3.0 mi East 10.4 mph - 0.00 in Snow Light Snow
8:56 AM 34.0 °F 25.0 °F 34.0 °F 100% 29.89 in 5.0 mi East 12.7 mph - 0.00 in   Overcast
9:33 AM 35.6 °F 29.2 °F 35.6 °F 100% 29.88 in 5.0 mi East 8.1 mph - 0.00 in   Overcast
9:56 AM 34.9 °F 28.3 °F 34.9 °F 100% 29.89 in 9.0 mi East 8.1 mph - 0.00 in   Overcast
10:56 AM 36.0 °F 29.6 °F 36.0 °F 100% 29.90 in 7.0 mi East 8.1 mph - 0.00 in   Overcast
11:28 AM 37.4 °F 32.8 °F 37.4 °F 100% 29.90 in 10.0 mi ENE 5.8 mph - N/A   Overcast
11:56 AM 37.9 °F 33.5 °F 37.9 °F 100% 29.91 in 10.0 mi ENE 5.8 mph - 0.00 in   Mostly Cloudy
12:56 PM 39.2 °F 35.0 °F 39.2 °F 100% 29.91 in 10.0 mi West 5.8 mph - N/A Rain Light Rain
1:29 PM 39.2 °F 37.0 °F 39.2 °F 100% 29.93 in 5.0 mi NNW 3.5 mph - 0.00 in Rain Light Rain
1:56 PM 38.8 °F 36.5 °F 38.8 °F 100% 29.94 in 10.0 mi North 3.5 mph - 0.00 in   Mostly Cloudy
2:09 PM 39.2 °F 35.9 °F 39.2 °F 100% 29.93 in 10.0 mi ESE 4.6 mph - 0.00 in   Overcast
2:56 PM 41.0 °F 37.1 °F 41.0 °F 100% 29.95 in 10.0 mi WNW 5.8 mph - 0.00 in   Overcast
3:56 PM 39.2 °F 35.9 °F 39.2 °F 100% 29.95 in 10.0 mi West 4.6 mph - N/A Rain Light Rain
4:10 PM 39.2 °F - 39.2 °F 100% 29.95 in 4.0 mi Calm Calm - 0.00 in Rain Light Rain
4:56 PM 39.9 °F - 39.9 °F 100% 29.96 in 10.0 mi Calm Calm - 0.00 in   Overcast
5:56 PM 37.9 °F 35.5 °F 37.9 °F 100% 29.96 in 9.0 mi Variable 3.5 mph - 0.00 in Rain Light Rain
6:09 PM 37.4 °F - 37.4 °F 100% 29.96 in 10.0 mi Calm Calm - 0.00 in   Overcast
6:56 PM 36.9 °F 34.3 °F 36.9 °F 100% 29.97 in 10.0 mi Variable 3.5 mph - 0.00 in   Mostly Cloudy
7:56 PM 34.9 °F 32.0 °F 34.9 °F 100% 29.97 in 10.0 mi North 3.5 mph - 0.00 in   Scattered Clouds
8:56 PM 32.9 °F - 32.9 °F 100% 29.98 in 10.0 mi Calm Calm - N/A   Clear
9:56 PM 32.0 °F 28.7 °F 32.0 °F 100% 29.98 in 10.0 mi NE 3.5 mph - N/A   Partly Cloudy
10:56 PM 32.9 °F - 32.9 °F 100% 29.98 in 10.0 mi Calm Calm - N/A   Overcast
11:56 PM 32.9 °F - 32.9 °F 100% 29.97 in 10.0 mi Calm Calm - N/A   Mostly Cloudy